Regional Weather Roundup
Issued by NWS

Home | Current Version | Previous Version | Graphics & Text | Print | Product List | Glossary On
Versions: 1 2 3 4 5 6 7 8 9 10 11 12 13 14 15 16 17 18 19 20 21 22 23 24 25 26 27 28 29 30 31 32 33 34 35 36 37 38 39 40 41 42 43 44 45 46 47 48 49 50
625
ASUS43 KFSD 230202
RWRSD

WEATHER ROUNDUP FOR SOUTH DAKOTA
NATIONAL WEATHER SERVICE SIOUX FALLS SD
900 PM CDT FRI SEP 22 2017

NOTE: "FAIR" INDICATES FEW OR NO CLOUDS BELOW 12,000 FEET WITH NO
SIGNIFICANT WEATHER AND/OR OBSTRUCTIONS TO VISIBILITY.


SDZ001>005-009-010-012>017-230300-
NORTHWEST AND NORTH CENTRAL SOUTH DAKOTA

CITY           SKY/WX    TMP DP  RH WIND       PRES   REMARKS
BUFFALO          N/A     47  37  68 N15       29.95R
FAITH            N/A     48  42  80 N21       29.94R
MOBRIDGE       CLOUDY    53  46  77 NW21G28   29.86S
$$

SDZ012>016-024>037-041>051-057-063-072>074-230300-
SOUTHWEST AND SOUTH CENTRAL SOUTH DAKOTA

CITY           SKY/WX    TMP DP  RH WIND       PRES   REMARKS
RAPID CTY ARPT NOT AVBL
PIERRE         CLOUDY    52  45  77 N15       29.85R
CUSTER         LGT RAIN  47  41  80 NW5       29.94F
ELLSWORTH AFB  CLOUDY    53  36  53 N25       29.94R
PHILIP         CLEAR     51  42  71 N10       29.90R
PINE RIDGE     PTCLDY    56  40  55 N14       29.93R
SPEARFISH      CLOUDY    48  37  66 NW6       30.04R
WINNER         LGT RAIN  59  52  77 NW12      29.87R
$$

SDZ004>011-016>023-039-040-230300-
NORTHEAST SOUTH DAKOTA

CITY           SKY/WX    TMP DP  RH WIND       PRES   REMARKS
ABERDEEN       CLOUDY    62  58  86 NW13      29.79R
WATERTOWN      TSTM      68  64  87 S8        29.77R
BROOKINGS      LGT RAIN  72  65  78 W10       29.80R
SISSETON         N/A     76  62  62 W16G22    29.71R
$$

SDZ017-020-022-023-036>040-048>070-230300-
SOUTHEAST SOUTH DAKOTA

CITY           SKY/WX    TMP DP  RH WIND       PRES   REMARKS
SIOUX FALLS    CLOUDY    83  68  60 SW7       29.78R
HURON          PTCLDY    63  57  81 NW16      29.79S
CHAMBERLAIN    CLOUDY    63  54  72 NW18      29.81F
MITCHELL       PTCLDY    66  62  87 NW7       29.79R
YANKTON        CLOUDY    73  61  65 NW12      29.78R
$$

ABBREVIATIONS USED IN REMARKS
   TC - TEMPERATURE IN CELSIUS
  WCI - WIND CHILL INDEX
   HX - HEAT INDEX
  VSB - VISIBILITY





USA.gov is the U.S. government's official web portal to all federal, state and local government web resources and services.